Torna al catalogo

FENGYUN 1C DEB

AttivoPO
NORAD 36686·DEBRIS·🇨🇳 China

Lanciato May 10, 1999 da Taiyuan Satellite Launch Center

Loading…

Prossimi Passaggi (prossime 24 ore)

TLE

AggiornatoSource: Space-Track

Epoca: Sep 14, 2026, 09:38 UTC

1 36686U 99025DZG 26257.40157950  .00003604  00000-0  44224-3 0  9999
2 36686  98.9767 126.2871 0096839 267.2744  91.7378 14.80589816699279

Traccia FENGYUN 1C DEB in tempo reale con AllMySat

Download on the App Store